FW1530 Weather Reports


Display with metric or nautical units.
time (UTC)temp
F
wind
direction
speed
MPH
gust
MPH
rain 1hr
in
rain 24hr
in
rain mn
in
humidity
%
barometer
mb
20190821131502 87 288 4.0 11.0 0.00 0.00 0.00 70 1014.7
20190821130143 86 325 2.0 9.0 0.00 0.00 0.00 74 1014.8
20190821124626 85 328 4.0 12.0 0.00 0.00 0.00 74 1014.8
20190821123118 85 244 2.0 11.0 0.00 0.00 0.00 76 1014.7
20190821121704 85 315 2.0 5.0 0.00 0.00 0.00 77 1014.7
20190821120249 84 257 0.0 4.0 0.00 0.00 0.00 80 1014.7
20190821114658 83 280 1.0 4.0 0.00 0.00 0.00 81 1014.6
20190821113128 83 277 0.0 2.0 0.00 0.00 0.00 81 1014.8
20190821111600 82 266 0.0 1.0 0.00 0.00 0.00 84 1014.8
20190821110226 81 269 0.0 1.0 0.00 0.00 0.00 85 1014.8
20190821104709 80 264 0.0 3.0 0.00 0.00 0.00 85 1014.7
20190821103142 80 317 0.0 4.0 0.00 0.00 0.00 86 1014.7
20190821101642 80 300 0.0 5.0 0.00 0.00 0.00 87 1014.7
20190821100046 80 283 0.0 1.0 0.00 0.00 0.00 87 1014.5
20190821094608 80 262 0.0 1.0 0.00 0.00 0.00 88 1014.3
20190821093122 80 264 0.0 2.0 0.00 0.00 0.00 89 1014.3
20190821091546 80 267 0.0 3.0 0.00 0.00 0.00 89 1014.1
20190821090120 80 291 0.0 3.0 0.00 0.00 0.00 89 1014.1
20190821084559 80 282 0.0 3.0 0.00 0.00 0.00 90 1014.1
20190821083049 80 281 0.0 4.0 0.00 0.00 0.00 89 1014.2
20190821081534 80 287 0.0 3.0 0.00 0.00 0.00 89 1014.1
20190821080128 80 300 0.0 3.0 0.00 0.00 0.00 88 1014.0
20190821074543 80 255 0.0 2.0 0.00 0.00 0.00 88 1013.7
20190821073100 80 266 0.0 2.0 0.00 0.00 0.00 88 1013.9
20190821071547 80 273 0.0 1.0 0.00 0.00 0.00 88 1014.0
20190821070053 80 257 0.0 2.0 0.00 0.00 0.00 88 1013.9
20190821064545 80 238 0.0 1.0 0.00 0.00 0.00 87 1014.2
20190821063048 81 264 0.0 1.0 0.00 0.00 0.00 87 1014.2
20190821061517 81 307 0.0 4.0 0.00 0.00 0.00 87 1014.2
20190821060020 81 258 0.0 1.0 0.00 0.00 0.00 87 1014.4
20190821054550 81 264 0.0 2.0 0.00 0.00 0.00 87 1014.6
20190821053014 81 262 0.0 3.0 0.00 0.00 0.00 87 1014.9
20190821051507 81 259 0.0 3.0 0.00 0.00 0.00 88 1015.1
20190821050002 81 262 0.0 2.0 0.00 0.00 0.00 89 1015.3
20190821044501 81 293 0.0 3.0 0.00 0.00 0.00 89 1015.6
20190821043233 81 273 0.0 1.0 0.00 0.00 0.00 89 1015.5
20190821041712 81 284 0.0 2.0 0.00 0.00 0.00 89 1015.5
20190821040130 82 285 0.0 1.0 0.00 0.00 0.00 88 1015.3
20190821034709 82 245 0.0 1.0 0.00 0.00 0.00 88 1015.5
20190821033158 82 255 0.0 2.0 0.00 0.00 0.00 87 1015.5
20190821031704 82 283 1.0 4.0 0.00 0.00 0.00 87 1015.6
20190821030129 82 283 1.0 4.0 0.00 0.00 0.00 88 1015.5
20190821024609 82 297 0.0 3.0 0.00 0.00 0.00 88 1015.7
20190821023111 82 271 0.0 3.0 0.00 0.00 0.00 87 1015.9
20190821021632 82 276 0.0 2.0 0.00 0.00 0.00 86 1015.8
20190821020123 82 259 0.0 1.0 0.00 0.00 0.00 86 1015.7
20190821014659 82 259 0.0 1.0 0.00 0.00 0.00 85 1015.8
20190821013232 82 259 0.0 2.0 0.00 0.00 0.00 84 1015.4
20190821011630 82 283 0.0 3.0 0.00 0.00 0.00 83 1015.4
20190821010105 82 269 0.0 1.0 0.00 0.02 0.00 82 1015.2
20190821004650 83 280 0.0 2.0 0.00 0.02 0.00 81 1015.1
20190821003150 83 288 0.0 2.0 0.00 0.02 0.00 79 1014.6
20190821001621 83 293 0.0 4.0 0.00 0.02 0.00 78 1014.5
20190821000125 83 312 1.0 3.0 0.00 0.02 0.00 81 1014.5
20190820234700 84 298 0.0 7.0 0.00 0.02 0.00 84 1014.3
20190820233126 84 246 2.0 6.0 0.00 0.02 0.00 85 1014.1
20190820231615 84 252 1.0 6.0 0.00 0.02 0.00 86 1014.0
20190820230105 84 262 3.0 12.0 0.00 0.02 0.00 86 1013.8
20190820224631 84 278 3.0 10.0 0.00 0.02 0.00 85 1013.5
20190820223159 85 277 2.0 12.0 0.00 0.02 0.00 85 1013.6
20190820221623 85 307 4.0 12.0 0.00 0.02 0.00 84 1013.3
20190820220128 86 264 6.0 14.0 0.00 0.02 0.00 81 1013.3
20190820214625 86 285 8.0 18.0 0.00 0.02 0.00 81 1013.0
20190820213105 87 263 4.0 11.0 0.00 0.02 0.00 80 1012.7
20190820211718 86 281 5.0 18.0 0.00 0.02 0.00 80 1012.5
20190820210145 86 301 5.0 22.0 0.00 0.02 0.00 81 1012.6
20190820204550 86 285 5.0 17.0 0.00 0.02 0.00 83 1012.4
20190820203050 87 271 4.0 17.0 0.00 0.02 0.00 82 1012.6
20190820201539 87 261 6.0 15.0 0.00 0.02 0.00 80 1012.5
20190820200106 87 249 7.0 22.0 0.00 0.02 0.00 80 1012.5
20190820194538 87 273 7.0 15.0 0.00 0.02 0.00 78 1012.6
20190820193118 88 266 8.0 17.0 0.00 0.02 0.00 77 1012.7
20190820191616 89 240 5.0 21.0 0.00 0.02 0.00 75 1012.7
20190820190109 89 264 4.0 14.0 0.00 0.02 0.00 74 1012.8
20190820184542 89 283 5.0 12.0 0.00 0.02 0.00 74 1012.7
20190820183120 89 201 5.0 14.0 0.00 0.02 0.00 72 1012.8
20190820181545 89 281 5.0 15.0 0.00 0.02 0.00 74 1013.0
20190820180029 89 262 5.0 14.0 0.00 0.02 0.00 75 1013.2
20190820174559 89 280 5.0 17.0 0.00 0.02 0.00 75 1013.3
20190820173025 89 259 5.0 14.0 0.00 0.02 0.00 72 1013.6
20190820171559 89 228 3.0 16.0 0.00 0.02 0.00 75 1014.0
20190820170032 90 259 5.0 12.0 0.00 0.02 0.00 73 1014.4
20190820164525 90 311 4.0 14.0 0.00 0.02 0.00 72 1014.4
20190820163011 90 302 4.0 11.0 0.00 0.02 0.00 74 1014.7
20190820161515 89 262 4.0 10.0 0.00 0.02 0.00 71 1014.7
20190820160016 90 225 3.0 12.0 0.00 0.02 0.00 70 1014.9
20190820154503 89 312 3.0 10.0 0.00 0.02 0.00 70 1015.1
20190820153152 89 274 3.0 9.0 0.00 0.02 0.00 70 1015.1
20190820151720 89 308 2.0 16.0 0.00 0.02 0.00 74 1015.3
20190820150141 88 233 4.0 11.0 0.00 0.02 0.00 74 1015.4
20190820144751 87 348 3.0 9.0 0.00 0.02 0.00 76 1015.6
20190820143130 87 239 1.0 7.0 0.00 0.02 0.00 77 1015.9
20190820141641 88 307 1.0 9.0 0.00 0.02 0.00 71 1015.8
20190820140137 88 253 1.0 11.0 0.00 0.02 0.00 72 1015.9
20190820134601 87 278 6.0 13.0 0.00 0.02 0.00 72 1015.8
20190820133123 87 297 3.0 11.0 0.00 0.02 0.00 74 1015.8